Regional Weather Roundup
Issued by NWS

Home | Current Version | Previous Version | Text Only | Print | Product List | Glossary On
Versions: 1 2 3 4 5 6 7 8 9 10 11 12 13 14 15 16 17 18 19 20 21 22 23 24 25 26 27 28 29 30 31 32 33 34 35 36 37 38 39 40 41 42 43 44 45 46 47 48 49 50
000
ASUS45 KABQ 021701
RWRNM
WEATHER ROUNDUP FOR NEW MEXICO
NATIONAL WEATHER SERVICE ALBUQUERQUE NM
1000 AM MST MON MAR 02 2015

NOTE: "FAIR" MEANS FEW OR NO CLOUDS BELOW 12,000 FEET AGL WITH NO
       SIGNIFICANT WEATHER OR OBSTRUCTIONS TO VISION.

      THIS PRODUCT IS RELEASED AS TWO VERSIONS.  ONE VERSION NEAR
      THE TOP OF THE HOUR CONTAINING PRELIMINARY DATA FROM ALBUQUERQUE
      AND OTHER STATIONS.  A FINAL VERSION WITH ADDITIONAL DATA IS
      ISSUED ABOUT 10 MINUTES AFTER THE HOUR.

NMZ501-503-504-510>518-021800-
NORTHWEST PLATEAU/NORTHCENTRAL MOUNTAINS

CITY           SKY/WX    TMP DP  RH WIND       PRES   REMARKS
FARMINGTON     MOSUNNY   47  35  63 E13       29.93F
SANTA FE       MOSUNNY   35  25  66 S16       30.08F WCI  25
TAOS           PTSUNNY   34  27  75 CALM      30.08F
ANGEL FIRE     CLOUDY    44  24  46 SW10      30.06F

$$
NMZ402-403-502-505>509-021800-
WESTCENTRAL MOUNTAINS/SOUTHWEST MOUNTAINS

CITY           SKY/WX    TMP DP  RH WIND       PRES   REMARKS
GALLUP         SUNNY     51  32  48 SW18G31   29.94F
GRANTS         MOSUNNY   52  31  44 SE21G26   29.99F
SILVER CITY    CLOUDY    55  32  41 SW12      30.10R

$$
NMZ407-409-411-412-021800-
SOUTHERN DESERTS

CITY           SKY/WX    TMP DP  RH WIND       PRES   REMARKS
DEMING         CLOUDY    66  36  32 SW15G21   30.04F
HOLLOMAN AFB   CLOUDY    62  32  32 SE25G35   30.03F
ALAMOGORDO     CLOUDY    63  32  31 S25G41    30.07S
T OR C         CLOUDY    60  29  30 S13G21    30.03S

$$
NMZ519>523-021800-
CENTRAL VALLEYS/CENTRAL HIGHLANDS

CITY           SKY/WX    TMP DP  RH WIND       PRES   REMARKS
ALBUQUERQUE    PTSUNNY   41  31  67 N13       30.05F
DOUBLE EAGLE   PTSUNNY   39  30  70 NE9       30.06F WCI  33
MORIARTY ARPT  FAIR      34  28  79 SE10      30.11F WCI  26
CLINES CORNERS CLOUDY    31  30  96 SE10      30.08F WCI  22
BELEN          FAIR      49  31  51 SE5       30.03F
SOCORRO        NOT AVBL

$$
NMZ524>526-539-540-021800-
SOUTHCENTRAL MOUNTAINS

CITY           SKY/WX    TMP DP  RH WIND       PRES   REMARKS
RUIDOSO        NOT AVBL

$$
NMZ527>531-021800-
NORTHEAST HIGHLANDS/NORTHEAST PLAINS

CITY           SKY/WX    TMP DP  RH WIND       PRES   REMARKS
LAS VEGAS      CLOUDY    26  24  92 S17       30.09F WCI  13
RATON          CLOUDY    26  25  96 VRB3      30.09F FOG
CLAYTON        CLOUDY    29  26  89 SW29G36   30.09F WCI  14

$$
NMZ532>537-021800-
EASTCENTRAL PLAINS

CITY           SKY/WX    TMP DP  RH WIND       PRES   REMARKS
TUCUMCARI      CLOUDY    32  29  88 S12       30.21F WCI  23
CANNON AFB     FOG       29  29  99 S10       30.22F VSB 1/4 WCI  20
CLOVIS AIRPORT CLOUDY    28  28 100 S10       30.22F WCI  19

$$
NMZ028-029-538-021800-
SOUTHEAST PLAINS

CITY           SKY/WX    TMP DP  RH WIND       PRES   REMARKS
ROSWELL        FOG       34  32  92 S12       30.23F VSB 3/4 WCI  25
ARTESIA        CLOUDY    34  34 100 SE10G18   30.24F FOG     WCI  26
CARLSBAD       CLOUDY    35  33  92 S9        30.25F FOG     WCI  28
HOBBS          CLOUDY    32  32 100 E6        30.29R FOG     WCI  26


$$


USA.gov is the U.S. government's official web portal to all federal, state and local government web resources and services.